Theta_e
309 309 311 311 312 311 312 312 312 312 313 314 315 314 311 306 306 295 294 296 297 291 293 297 299 293 292 292 290 293 292 293 290 286 286 285 285 288 285 289 289 286 284 285 287 285 283 300 297 289 291 292 295 296
307 308 309 310 311 311 311 311 312 312 312 313 314 314 311 307 305 299 292 298 300 294 294 297 300 301 299 297 293 290 292 291 293 288 288 287 286 285 284 279 291 283 288 284 287 286 293 295 295 296 295 294 295 293
309 309 310 309 310 310 310 311 311 312 312 312 314 314 311 307 305 299 291 293 295 291 291 290 293 298 299 299 298 291 289 294 293 294 289 287 285 287 280 283 286 289 291 286 287 290 293 295 296 297 296 294 295 294
308 309 309 310 309 309 310 310 311 311 312 312 313 313 310 306 305 301 293 295 296 292 286 290 299 296 301 300 298 296 296 295 294 292 289 287 286 290 285 287 286 288 289 288 286 290 292 294 296 296 296 295 294 294
306 308 308 309 309 309 309 310 310 311 312 312 313 311 308 306 305 300 295 294 298 293 286 290 295 297 297 300 299 297 295 292 291 289 287 287 287 287 286 287 284 289 288 284 284 291 291 292 295 296 293 292 292 291
305 306 307 308 308 308 309 309 309 310 311 313 312 308 306 304 302 298 294 296 297 298 292 286 294 295 298 298 297 296 295 292 291 289 287 288 290 288 281 281 289 291 292 293 291 294 294 296 296 295 293 292 292 291
304 304 305 305 306 306 307 307 307 307 307 306 305 304 303 302 297 296 294 297 300 296 291 287 287 294 299 298 296 295 295 293 292 290 289 289 289 290 285 282 291 293 294 294 296 295 294 295 292 294 292 292 293 292
304 304 304 304 304 304 304 305 304 304 303 303 302 302 301 301 299 293 295 301 298 293 292 286 287 290 298 293 292 294 292 292 291 291 290 289 289 288 284 289 292 295 297 298 298 299 297 294 294 292 291 291 289 289
304 304 304 303 303 303 303 303 303 302 302 302 301 300 299 295 293 295 305 300 296 294 287 288 284 285 295 291 291 292 293 288 292 289 288 290 286 284 289 291 292 295 295 296 298 295 294 292 291 290 289 289 288 292
302 303 303 303 303 303 302 302 302 302 301 300 299 296 293 297 305 305 296 292 291 290 290 287 288 285 289 288 287 289 290 288 286 289 291 287 285 293 296 295 296 297 298 297 292 292 291 289 288 288 288 292 293 293
300 303 303 303 303 303 302 302 301 301 300 296 294 294 298 306 298 294 288 286 286 284 287 288 286 285 289 286 285 289 286 286 282 285 287 283 287 296 299 297 297 296 296 294 293 290 289 287 288 288 292 294 294 293
299 301 303 302 303 302 302 301 301 296 296 296 295 297 297 296 293 288 286 287 285 284 287 286 287 287 287 291 287 287 285 286 282 288 285 284 294 298 300 300 299 296 294 293 292 291 290 292 294 294 294 294 294 294
300 300 301 303 303 302 302 301 301 301 299 298 294 291 291 291 282 283 282 285 284 288 289 289 289 290 290 291 287 287 285 283 288 283 286 292 297 300 301 301 301 296 294 292 291 291 293 294 295 295 294 295 295 294
300 299 300 302 303 302 302 301 301 298 294 291 289 280 284 283 286 286 287 287 291 290 290 291 290 291 291 288 287 285 287 286 283 280 287 290 294 298 302 302 299 293 292 290 290 291 293 294 294 295 295 295 295 294
299 299 299 300 302 303 302 301 300 294 292 289 290 280 284 288 288 288 289 289 293 294 292 290 289 289 287 287 287 285 283 280 284 282 288 291 295 295 295 297 296 293 291 289 289 290 294 295 294 294 295 295 296 296
300 299 295 300 303 303 301 298 294 293 292 290 289 285 286 285 285 286 289 289 293 291 290 289 287 285 284 285 285 284 283 281 283 286 290 291 293 294 294 296 296 294 291 289 290 291 295 294 294 294 295 295 295 295
299 292 299 300 302 302 300 294 293 290 288 288 283 285 284 284 285 286 286 288 292 291 287 286 283 282 285 282 282 284 282 285 288 289 291 291 292 294 295 297 295 294 291 290 291 292 295 295 295 294 293 295 295 295
291 297 301 302 298 296 293 293 291 289 285 287 283 284 284 285 285 286 288 289 289 288 289 287 288 283 281 282 279 285 287 289 290 290 290 290 292 295 296 295 295 293 291 291 291 294 295 294 293 293 294 295 295 295
295 298 301 301 297 292 289 289 290 284 285 285 284 284 284 285 287 288 288 288 289 288 289 286 284 282 282 281 281 286 286 288 289 290 290 292 293 295 297 296 294 291 291 291 291 292 294 294 294 295 295 295 293 294
299 301 301 301 299 290 288 287 291 285 282 284 284 283 284 284 286 286 286 286 286 286 283 283 282 284 285 286 288 288 289 289 289 287 288 289 292 296 295 294 291 290 290 291 291 293 294 294 295 295 295 295 294 293
298 299 300 297 294 292 289 287 286 285 285 283 285 284 283 284 284 284 284 286 283 283 282 283 284 286 288 288 288 289 288 289 289 289 289 288 292 295 294 293 291 290 290 290 291 292 293 293 294 295 295 295 295 295
294 300 294 294 289 290 286 287 284 285 283 283 283 283 281 280 281 282 284 283 282 284 285 285 286 287 287 288 289 290 291 289 289 288 290 290 289 290 291 292 291 290 290 291 292 292 294 295 295 296 295 295 294 294
296 294 289 290 286 281 281 285 282 283 281 282 284 283 282 282 284 289 283 283 284 289 289 287 288 289 289 290 290 290 292 290 288 288 290 290 291 291 292 292 292 292 290 291 293 294 295 293 294 295 295 295 294 293
296 288 285 284 281 278 285 282 283 284 284 282 281 282 284 287 290 286 285 285 288 294 292 294 292 289 289 289 288 289 290 291 290 290 291 291 290 291 293 293 294 293 293 293 294 295 296 296 293 295 294 294 294 294
278 278 279 270 281 281 281 283 284 284 282 284 284 284 286 290 285 284 283 284 292 294 294 296 295 292 291 289 289 290 292 291 290 289 292 292 292 291 291 292 292 294 294 294 294 295 295 295 295 295 294 294 293 294
276 281 277 281 282 281 283 283 284 282 282 284 287 286 288 286 284 281 286 290 293 293 293 295 295 292 295 297 292 291 293 295 294 292 292 295 296 295 294 294 293 294 294 295 295 295 295 295 295 295 294 292 289 295
275 280 283 286 287 287 285 285 285 281 284 285 284 283 284 281 280 286 291 293 293 295 295 296 296 297 297 298 296 296 296 297 295 295 296 296 297 298 297 294 291 293 296 296 297 297 296 295 295 295 294 294 295 295
283 283 282 285 286 288 284 284 284 284 284 285 281 279 280 281 280 289 292 295 295 296 296 298 301 300 299 300 299 299 298 298 298 298 297 297 297 296 297 296 295 291 297 298 299 298 298 296 296 295 295 295 295 296
281 283 284 282 283 285 286 285 286 287 289 286 283 281 283 289 291 291 293 294 295 295 298 297 297 299 298 297 298 299 298 297 295 291 290 291 293 295 297 294 294 297 296 297 289 294 298 297 297 297 297 297 297 296
282 285 283 285 284 284 287 289 288 289 289 288 288 287 287 289 291 295 295 296 297 297 297 296 295 296 295 295 295 296 298 298 296 293 293 292 294 296 296 297 297 297 298 297 296 293 287 294 292 297 296 297 297 296
287 288 287 287 286 288 289 290 290 289 289 286 286 284 285 287 291 295 298 298 299 298 297 294 295 296 295 294 294 294 294 297 298 298 298 298 298 298 298 298 298 298 298 297 296 296 296 296 296 296 296 295 296 295
289 287 286 284 286 288 288 286 286 286 286 287 287 290 291 290 287 293 299 299 297 296 291 294 294 294 296 296 295 294 290 297 298 298 298 298 299 299 299 298 299 298 297 297 296 296 296 296 297 296 295 295 295 296
288 288 288 287 285 285 288 287 287 287 288 287 287 289 289 289 288 293 300 301 299 297 295 296 297 298 298 298 298 296 292 292 288 286 287 288 290 293 298 299 299 298 298 297 297 297 297 297 297 295 295 296 296 296
Wind_Speed
17 18 17 16 16 15 14 14 13 13 12 11 12 10 7 3 1 3 3 2 4 3 6 5 3 2 3 1 3 3 4 4 4 3 3 2 2 2 2 1 3 5 5 3 2 2 7 2 2 2 7 5 4 5
17 17 17 14 14 14 14 14 14 13 13 12 13 12 10 7 3 4 1 2 1 3 7 4 7 9 9 12 4 2 4 3 4 4 0 2 1 2 2 2 3 1 6 6 8 7 5 2 6 4 5 6 5 3
8 12 13 14 14 15 14 15 15 15 14 13 14 14 13 10 6 5 2 2 3 2 5 4 3 4 2 8 6 5 2 2 1 3 4 2 0 4 1 4 1 3 2 1 3 3 4 6 4 3 3 2 3 3
15 6 11 12 13 13 14 14 14 15 15 15 15 15 13 11 7 5 2 2 3 2 1 7 4 4 6 7 5 4 6 4 5 3 2 3 2 3 3 3 4 5 2 3 4 6 6 6 5 3 1 3 3 3
19 15 7 4 11 13 13 14 15 15 15 17 17 18 16 12 8 2 1 2 1 5 3 5 7 5 2 7 8 6 6 4 2 2 2 3 2 2 1 2 3 5 6 5 6 8 6 8 4 2 2 1 2 4
15 18 18 7 4 4 1 7 14 14 14 17 19 18 14 11 7 1 1 2 1 4 1 4 4 4 4 4 8 7 4 3 3 4 3 2 3 4 3 2 7 5 3 6 5 5 7 5 2 3 2 2 3 5
12 15 18 20 19 18 17 18 20 20 20 18 16 13 8 6 2 2 4 3 2 2 2 4 5 4 1 4 2 3 2 2 3 2 1 2 2 4 3 3 8 7 8 6 7 1 1 2 1 4 4 4 5 5
10 10 13 16 18 19 19 19 19 19 18 16 13 10 5 2 3 3 2 4 2 4 2 1 5 4 1 3 2 0 3 2 2 2 1 2 1 2 2 9 6 6 5 3 5 5 4 6 5 5 4 4 5 5
8 7 9 11 13 15 16 15 16 15 14 11 8 5 4 2 2 2 7 8 3 3 2 2 2 3 3 1 2 2 2 2 0 3 3 4 0 2 5 8 6 5 0 5 5 7 6 5 3 4 4 5 4 4
12 4 5 8 10 11 11 11 10 10 10 7 6 3 2 2 3 6 4 3 3 2 1 3 1 3 2 1 1 3 1 3 2 4 3 3 1 4 9 5 2 6 5 3 2 5 4 3 5 5 5 5 2 5
8 10 1 4 7 8 6 5 4 4 5 2 2 2 2 3 1 2 1 2 1 2 3 4 5 2 2 2 3 1 3 2 1 3 4 1 1 3 7 5 4 6 7 7 6 3 3 2 3 4 5 4 4 5
8 8 7 2 3 5 2 1 4 3 3 1 0 2 2 1 1 2 3 1 4 5 3 4 5 5 3 2 3 2 2 2 3 2 4 2 1 1 3 3 4 4 7 5 3 4 3 6 4 4 4 4 5 4
7 7 8 4 4 3 2 2 5 5 4 2 1 1 4 4 2 5 6 3 3 4 4 3 3 4 1 3 4 3 2 4 1 4 2 2 2 3 2 3 1 4 5 3 3 1 5 4 4 3 4 4 4 3
6 5 4 4 4 4 2 2 4 3 2 1 1 3 3 4 4 4 3 3 4 3 3 3 2 3 1 4 2 4 2 2 1 2 2 3 4 2 2 4 5 2 4 2 1 4 4 4 4 4 4 4 2 2
5 4 4 4 5 5 2 1 3 2 1 2 3 3 4 3 3 4 4 1 2 2 3 3 4 4 2 3 1 3 2 0 2 4 3 3 4 5 2 3 3 4 3 2 2 2 4 4 3 3 4 3 3 3
7 4 3 4 8 7 3 3 3 1 2 2 2 2 3 2 4 5 3 1 2 2 2 4 3 3 2 3 3 4 4 4 4 3 3 1 2 3 3 3 3 5 4 3 2 1 3 3 3 3 3 3 3 4
3 2 6 5 8 7 3 2 1 1 2 3 3 2 2 2 3 4 2 3 3 3 2 3 3 4 2 3 1 3 3 3 3 2 2 3 4 6 4 3 5 5 5 3 1 1 2 2 2 3 3 2 3 3
2 4 2 11 6 3 1 0 0 1 3 3 2 3 2 2 2 4 4 2 2 2 3 2 4 2 3 4 2 4 3 3 3 3 3 3 4 6 4 5 6 6 5 4 2 0 2 2 3 3 2 3 3 3
3 3 8 9 2 2 1 2 2 2 4 3 3 2 2 3 4 4 3 3 1 1 5 3 3 3 4 3 4 3 2 3 4 4 3 3 4 5 1 5 6 5 5 4 3 1 2 2 1 2 2 3 2 2
5 5 9 5 3 2 1 2 2 1 3 3 2 3 2 3 3 2 2 1 1 3 2 3 5 4 5 4 5 5 5 5 4 2 3 4 3 4 6 5 4 4 4 4 2 3 2 2 1 1 1 3 3 2
6 2 5 3 2 0 1 2 2 4 3 2 3 1 3 2 2 1 2 1 2 3 3 4 4 5 5 4 4 4 4 5 6 6 5 4 4 4 3 4 5 4 3 3 4 3 3 2 1 1 2 2 2 2
1 3 2 1 0 2 2 3 3 2 1 3 3 1 2 2 3 4 2 2 4 5 5 5 5 5 5 5 5 7 7 8 5 2 2 2 2 3 3 4 5 5 4 4 4 4 3 3 2 2 3 2 3 3
4 2 1 1 1 2 6 1 1 2 1 3 2 2 3 2 2 1 1 2 2 1 3 3 5 5 6 6 5 5 7 7 5 5 5 5 5 4 3 4 5 6 4 4 3 4 4 5 3 3 3 3 3 4
2 1 1 2 4 3 2 2 2 2 2 2 2 4 1 2 3 2 2 3 2 3 4 7 3 3 2 3 4 5 5 6 5 4 4 4 4 5 5 5 5 4 5 5 4 4 4 4 5 4 4 4 4 5
4 4 4 4 2 1 3 2 1 2 3 3 2 2 1 1 1 1 2 3 2 3 4 4 3 2 2 4 4 5 6 6 5 6 5 5 3 4 3 3 3 4 5 6 6 6 5 5 4 4 5 5 5 7
1 3 5 3 2 3 3 3 3 5 3 2 1 3 1 1 2 3 2 2 2 3 5 4 5 5 6 5 4 3 4 4 5 5 4 7 8 8 9 8 6 4 4 5 7 8 8 7 6 6 6 6 5 8
2 4 4 3 2 2 4 3 2 2 1 2 3 3 2 2 3 2 2 2 2 4 6 6 5 4 5 2 1 3 3 2 3 4 3 4 4 4 8 10 8 5 6 7 7 9 9 8 7 6 6 6 6 5
4 3 2 2 2 3 3 3 1 2 1 2 3 1 2 2 3 2 2 4 6 6 5 5 3 2 2 2 2 2 4 4 7 8 8 6 5 3 5 4 4 11 6 6 7 7 8 8 7 7 8 9 6 4
3 3 0 6 3 1 2 2 1 1 1 1 2 2 3 2 2 3 3 6 8 6 1 2 4 3 1 1 2 2 3 2 4 5 7 4 2 2 2 4 5 4 5 6 6 8 10 8 7 7 7 7 5 4
4 3 2 2 2 2 1 2 2 2 1 0 2 2 2 2 4 4 4 5 4 2 2 4 4 3 3 2 2 3 2 2 2 4 5 6 4 5 5 6 6 5 6 7 7 6 7 7 6 6 7 6 4 5
2 1 2 3 1 1 1 1 1 2 1 2 3 3 2 2 3 3 4 4 3 4 5 5 5 5 5 5 3 3 4 4 5 7 6 5 5 5 5 5 5 6 7 8 8 7 7 7 6 9 10 9 8 7
2 3 3 2 0 1 1 1 2 3 4 3 3 2 2 2 5 7 5 5 4 6 5 5 5 5 5 4 4 4 5 4 4 4 6 5 5 5 6 5 6 6 7 8 7 7 8 7 5 7 10 11 10 10
2 2 1 1 1 1 2 1 1 1 3 2 2 3 3 2 3 3 4 4 4 5 5 4 4 5 7 8 7 5 5 4 5 5 6 6 6 6 6 6 6 7 9 8 7 8 8 6 5 9 10 11 10 8
Wind_Direction
251 244 242 235 235 232 232 231 230 225 226 220 223 211 199 196 31 100 264 226 131 183 275 223 234 201 0 88 146 264 47 349 38 76 131 232 191 302 30 122 185 162 139 175 107 242 270 316 15 199 223 277 249 259
253 242 244 234 233 232 231 230 226 222 222 217 213 200 189 191 169 133 295 337 85 146 240 242 227 236 197 207 144 346 173 181 190 94 181 108 353 23 125 284 1 66 173 183 173 217 238 297 227 246 209 238 280 305
275 240 229 229 230 230 232 231 226 220 216 214 207 196 187 186 173 151 191 288 52 40 307 349 275 292 203 186 162 133 293 190 39 169 154 157 226 124 166 249 295 314 119 134 57 273 241 286 273 249 290 277 29 15
7 285 240 236 234 232 234 235 231 225 217 210 200 183 179 176 170 156 162 180 101 111 226 282 332 300 303 156 147 134 143 65 102 64 100 124 161 150 213 230 171 203 56 178 258 281 297 272 233 248 196 63 32 336
19 14 9 286 237 235 232 230 229 229 223 213 190 171 170 168 160 133 167 233 160 134 231 281 305 275 242 160 143 115 106 103 84 55 81 216 205 118 6 38 266 191 195 155 221 238 200 251 259 160 95 8 328 335
26 31 33 36 49 67 70 242 233 226 222 212 176 159 151 146 129 143 26 284 217 165 106 300 294 292 8 159 146 125 125 101 104 137 208 264 262 102 94 234 261 251 227 176 229 229 209 266 158 100 148 313 333 336
40 45 50 50 54 65 76 80 83 85 90 102 106 100 102 101 114 226 187 182 128 136 116 302 317 280 123 101 60 80 71 132 127 143 180 196 293 108 120 212 259 262 256 240 252 221 9 194 276 76 25 0 331 318
44 57 62 67 64 62 67 73 79 83 84 81 83 83 73 20 347 280 290 227 150 90 94 247 270 338 139 119 162 150 104 44 359 176 94 177 44 75 246 244 276 306 314 85 53 66 84 91 61 23 10 343 333 341
33 53 79 82 81 79 79 75 75 75 75 69 76 74 79 66 193 234 112 103 72 126 196 202 212 211 3 89 112 52 121 121 228 182 234 107 7 221 295 298 296 294 222 145 96 72 64 67 15 345 323 339 332 329
17 22 54 90 97 96 87 78 76 73 68 63 43 54 97 261 223 135 16 43 18 339 38 229 177 253 97 69 77 102 7 160 169 245 108 118 178 279 342 338 41 61 62 69 67 347 351 3 11 328 314 298 3 327
5 13 350 74 97 95 99 103 100 91 68 37 34 48 312 268 19 12 87 161 193 255 206 232 182 203 286 123 166 182 166 150 123 265 127 71 53 7 337 13 52 74 73 58 81 76 76 72 302 306 325 356 335 327
6 6 7 167 128 124 121 8 25 45 66 158 43 303 316 342 182 141 219 189 200 232 215 185 203 191 264 113 103 344 110 59 225 145 112 97 129 27 301 346 29 76 84 76 78 95 27 343 343 333 343 335 331 340
356 357 360 190 166 150 136 56 36 33 24 32 146 173 187 193 163 201 194 204 223 207 212 186 163 163 119 57 68 79 83 236 3 55 113 100 166 201 269 267 179 99 85 86 55 5 327 346 1 17 349 347 340 32
345 339 349 19 192 176 186 46 33 25 82 241 201 331 160 232 227 206 226 211 228 204 164 150 98 103 76 68 128 112 236 74 359 96 156 187 227 223 297 338 132 123 81 74 329 336 352 351 25 26 360 333 69 49
347 331 330 297 210 173 159 42 28 45 87 245 251 233 232 283 296 264 257 233 233 151 123 85 54 83 35 104 82 93 106 217 169 193 188 210 221 213 275 317 248 147 163 223 280 346 344 16 33 15 1 8 67 83
337 335 269 292 168 152 133 34 15 360 292 295 264 292 318 7 333 332 10 9 352 107 72 50 93 99 128 130 120 200 158 195 208 215 221 180 208 220 243 292 196 152 169 200 256 324 357 42 27 4 6 62 65 89
329 256 320 228 149 124 115 57 28 276 261 264 263 257 232 256 241 290 301 297 326 69 108 111 130 190 110 103 172 145 183 193 199 217 217 214 243 261 268 279 171 155 173 185 230 5 72 65 30 21 69 64 91 96
233 302 157 139 119 116 2 90 288 258 253 257 234 257 246 240 285 297 295 307 75 112 116 153 128 79 156 163 232 224 204 187 192 192 219 258 261 273 260 225 158 168 169 149 170 113 138 91 52 9 74 105 102 100
220 296 160 141 125 119 154 267 154 249 251 265 271 264 235 256 244 249 266 294 355 121 106 62 114 177 219 212 188 195 224 205 192 201 232 253 249 268 256 139 142 162 162 150 171 189 143 120 110 356 108 118 116 114
280 115 116 77 53 42 299 277 136 236 271 259 286 279 237 236 267 288 292 293 133 122 104 161 187 204 190 212 189 184 200 189 147 149 280 284 264 168 185 171 165 171 155 134 130 136 128 116 45 26 141 135 139 147
79 65 64 57 359 318 252 284 271 216 265 271 267 296 266 304 268 249 272 139 94 190 214 208 203 226 215 229 215 204 207 166 191 178 199 215 234 194 199 163 159 158 166 166 167 167 160 165 209 152 155 142 135 142
103 95 94 23 325 256 248 224 209 265 265 262 316 223 268 286 257 233 183 148 215 221 193 194 209 212 225 214 215 201 208 193 214 207 297 162 167 190 225 190 159 184 181 182 180 174 172 166 167 165 148 133 118 128
104 60 60 179 302 41 260 78 218 257 260 265 324 264 245 255 256 330 253 220 251 324 279 254 253 223 212 224 192 204 209 190 195 210 226 221 221 208 188 178 179 160 166 195 184 157 152 150 168 150 131 133 124 128
16 105 210 218 159 257 305 268 230 264 268 276 260 278 324 319 351 31 278 280 265 310 336 320 273 249 273 241 213 209 210 181 207 232 214 181 211 225 185 184 178 168 159 149 154 142 146 146 141 143 139 146 144 157
52 296 104 302 243 278 266 256 241 273 255 251 239 299 342 8 301 272 260 265 301 293 308 305 330 5 269 258 252 230 213 175 186 207 230 179 142 82 92 131 146 153 148 145 151 151 151 146 152 148 152 158 159 164
331 251 149 221 235 202 222 261 212 226 239 270 303 306 302 273 228 238 250 286 275 302 312 308 313 309 308 270 259 229 227 195 173 183 221 167 175 167 169 166 163 186 179 156 148 153 153 152 154 166 160 161 159 166
296 263 229 233 179 251 283 266 234 125 347 334 343 331 316 276 271 257 287 278 293 306 300 286 263 271 313 310 336 18 24 79 158 159 119 130 129 150 162 163 177 193 159 153 153 153 156 155 168 167 156 159 175 172
241 258 201 242 215 201 213 272 356 26 18 342 8 289 249 258 263 307 284 324 319 305 293 295 299 32 347 10 11 39 57 68 83 85 79 58 61 99 124 114 117 142 140 145 147 148 150 153 161 159 157 157 152 136
259 262 27 276 244 124 56 360 8 38 351 273 230 261 264 257 280 282 297 309 300 288 360 344 336 323 145 56 25 58 115 130 124 125 117 121 113 74 92 110 128 131 127 130 126 140 146 144 152 151 140 147 141 129
251 181 210 300 35 48 68 352 317 335 34 231 267 278 269 263 269 271 285 282 293 328 25 30 327 346 61 17 79 53 68 100 114 133 158 166 143 140 131 130 129 126 131 132 126 122 113 123 115 127 134 134 137 138
281 117 83 48 45 50 11 341 293 301 306 248 222 228 253 263 288 273 345 343 7 11 27 34 28 28 35 37 41 64 72 36 84 107 112 116 122 127 123 121 127 128 131 133 136 143 144 147 146 152 155 157 159 158
59 51 96 233 236 81 4 351 337 0 340 317 318 295 323 22 27 349 344 354 13 62 36 31 37 39 33 31 39 46 38 67 79 101 105 112 118 120 120 120 122 124 124 128 132 141 148 151 153 154 156 162 165 166
82 100 125 160 198 212 164 128 48 293 282 294 333 1 28 62 16 318 314 359 15 66 77 49 26 20 31 40 41 58 66 72 63 61 79 91 111 123 122 122 126 129 132 134 138 141 151 163 144 140 146 154 155 148